Location: Chuathbaluk
(61.5726°N, 159.2454°W)
Time: 13:19:36
(UTC+00:00)

KKS-1 - Visible Passes

Search period start: 16 January 2021 00:00
Search period end: 26 January 2021 00:00
Orbit: 636 x 650 km, 98.3° (Epoch: 16 January)

Date Brightness Start Highest point End Pass type
(mag) Time Alt. Az. Time Alt. Az. Time Alt. Az.
16 Jan ? 15:51:15 10° E 15:54:08 17° NE 15:57:01 10° N visible
16 Jan ? 17:25:33 10° SE 17:29:55 56° ENE 17:34:18 10° NNW visible
17 Jan ? 16:14:50 10° E 16:18:16 22° NE 16:21:41 10° N visible
17 Jan ? 17:49:49 10° SSE 17:54:17 81° ENE 17:58:46 10° NNW visible
18 Jan ? 15:06:01 10° NE 15:07:06 11° NNE 15:08:11 10° NNE visible
18 Jan ? 16:38:36 10° ESE 16:42:27 29° NE 16:46:18 10° N visible
18 Jan ? 18:14:16 10° S 18:18:43 70° WSW 18:23:12 10° NNW visible
19 Jan ? 15:28:57 10° ENE 15:31:08 14° NE 15:33:18 10° N visible
19 Jan ? 17:02:32 10° SE 17:06:41 40° ENE 17:10:52 10° N visible
20 Jan ? 15:52:20 10° E 15:55:12 17° NE 15:58:06 10° N visible
20 Jan ? 17:26:37 10° SE 17:30:59 56° ENE 17:35:23 10° NNW visible
21 Jan ? 16:15:55 10° E 16:19:20 22° NE 16:22:46 10° N visible
21 Jan ? 17:50:53 10° SSE 17:55:22 81° ENE 17:59:51 10° NNW visible
22 Jan ? 15:07:05 10° NE 15:08:10 11° NNE 15:09:16 10° NNE visible
22 Jan ? 16:39:40 10° ESE 16:43:31 29° NE 16:47:22 10° N visible
22 Jan ? 18:15:21 10° S 18:19:48 70° WSW 18:24:16 10° NNW visible
23 Jan ? 15:30:01 10° ENE 15:32:12 14° NE 15:34:22 10° N visible
23 Jan ? 17:03:36 10° SE 17:07:46 40° ENE 17:11:55 10° N visible
24 Jan ? 15:53:23 10° E 15:56:17 17° NE 15:59:10 10° N visible
24 Jan ? 17:27:42 10° SE 17:32:04 56° ENE 17:36:27 10° NNW visible
25 Jan ? 16:16:58 10° E 16:20:24 22° NE 16:23:49 10° N visible
25 Jan ? 17:51:59 10° SSE 17:56:26 82° ENE 18:00:55 10° NNW visible
